Retour au catalogue

STARLINK-31877

ActifCommunicationsVLEO
NORAD 59675·PAYLOAD·🇺🇸 United States

Lancé May 6, 2024 depuis Cape Canaveral Space Force Station

Loading…

Prochains Passages (prochaines 24 heures)

TLE

FraisSource: CelesTrak SupGP

Époque: Sep 15, 2026, 02:19 UTC

1 59675C 24084X   26258.09701389 -.00027723  00000+0 -10043-2 0  2580
2 59675  43.0011  52.2378 0001476 271.1200 287.0979 15.27587159    14

Suivez STARLINK-31877 en temps réel avec AllMySat

Download on the App Store